Buffalo, NY

7:51 PM EDT on April 25, 2017 (GMT -0400)
Buffalo Niagara International

Weather History for KBUF - March, 2013

Change the Weather History Date:

Sunday, March 17, 2013

  Actual Average Record
Temperature  
Mean Temperature 26 °F 34 °F  
Max Temperature 31 °F 42 °F 73 °F (2012)
Min Temperature 21 °F 26 °F -4 °F (1885)
Degree Days  
Heating Degree Days 39 31  
Month to date heating degree days 556 570  
Since 1 July heating degree days 4876 5314  
Cooling Degree Days 0 0  
Month to date cooling degree days 0 0  
Year to date cooling degree days 0 0  
Moisture  
Dew Point 16 °F    
Average Humidity 67    
Maximum Humidity 88    
Minimum Humidity 46    
Precipitation  
Precipitation T in 0.09 in 2.62 in (1936)
Month to date precipitation 0.44 1.53  
Year to date precipitation 5.99 7.20  
Snow  
Snow 0.30 in 0.40 in 19.00 in (1936)
Month to date snowfall 5.6 8.4  
Since 1 July snowfall 54.3 87.2  
Snow Depth 0.00 in    
Sea Level Pressure  
Sea Level Pressure 30.17 in    
Wind  
Wind Speed 6 mph (NNW)    
Max Wind Speed 16 mph    
Max Gust Speed 18 mph    
Visibility 9 miles    
Events Snow    
T = Trace of Precipitation, MM = Missing Value Source: NWS Daily Summary

Daily Weather History Graph

Daily Weather History Graph

Search for Another Location

Airport or City:

Trip Planner

Search our weather history database for the weather conditions in past years. The results will help you decide how hot, cold, wet, or windy it might be!

Date:

Astronomy

Mar. 17, 2013 Rise Set
Actual Time 7:23 AM EDT 7:23 PM EDT
Civil Twilight 6:54 AM EDT 7:52 PM EDT
Nautical Twilight 6:21 AM EDT 8:25 PM EDT
Astronomical Twilight 5:48 AM EDT 8:59 PM EDT
Moon 10:26 AM EDT (3/17) 12:38 AM EDT (3/17)
Length of Visible Light 12h 57m
Length of Day
12h 00m
Waxing Crescent, 31% of the Moon is Illuminated
Mar 17
Waxing Crescent
Mar 19
First Quarter
Mar 27
Full
Apr 3
Last Quarter
Apr 10
New

Hourly Weather History & Observations

Time (EDT) Temp. Windchill Dew Point Humidity Pressure Visibility Wind Dir Wind Speed Gust Speed Precip Events Conditions
12:54 AM 23.0 °F 17.0 °F 16.0 °F 74% 30.01 in 10.0 mi SW 4.6 mph - N/A   Partly Cloudy
1:54 AM 23.0 °F 17.0 °F 17.1 °F 78% 30.04 in 10.0 mi SW 4.6 mph - N/A   Mostly Cloudy
2:54 AM 24.1 °F - 18.0 °F 77% 30.04 in 9.0 mi Calm Calm - 0.00 in Snow Light Snow
3:24 AM 24.8 °F - 17.6 °F 74% 30.01 in 4.0 mi Calm Calm - 0.00 in Snow Light Snow
3:41 AM 23.0 °F - 19.4 °F 86% 30.01 in 2.5 mi Calm Calm - 0.00 in Snow Light Snow
3:48 AM 23.0 °F - 19.4 °F 86% 30.01 in 3.0 mi Calm Calm - 0.00 in Snow Light Snow
3:54 AM 24.1 °F 19.7 °F 19.0 °F 81% 30.05 in 5.0 mi WNW 3.5 mph - 0.00 in Snow Light Snow
4:54 AM 24.1 °F 17.0 °F 19.9 °F 84% 30.06 in 9.0 mi WNW 5.8 mph - 0.00 in Snow Light Snow
5:07 AM 24.8 °F 16.9 °F 19.4 °F 80% 30.03 in 9.0 mi WNW 6.9 mph - 0.00 in Snow Light Snow
5:48 AM 24.8 °F 15.3 °F 19.4 °F 80% 30.05 in 6.0 mi NNW 9.2 mph - 0.00 in Snow Light Snow
5:54 AM 24.1 °F 16.0 °F 19.9 °F 84% 30.08 in 7.0 mi NNW 6.9 mph - 0.00 in Snow Light Snow
6:41 AM 23.0 °F 18.4 °F 19.4 °F 86% 30.06 in 9.0 mi NW 3.5 mph - 0.00 in   Overcast
6:54 AM 23.0 °F - 19.0 °F 85% 30.10 in 10.0 mi Calm Calm - 0.00 in   Mostly Cloudy
7:54 AM 23.0 °F - 19.0 °F 85% 30.13 in 10.0 mi Calm Calm - N/A   Scattered Clouds
8:54 AM 25.0 °F 18.1 °F 19.0 °F 78% 30.17 in 10.0 mi WNW 5.8 mph - N/A   Scattered Clouds
9:54 AM 27.0 °F 16.7 °F 18.0 °F 69% 30.19 in 10.0 mi WNW 11.5 mph - N/A   Scattered Clouds
10:54 AM 28.9 °F 20.4 °F 17.1 °F 61% 30.20 in 10.0 mi NNW 9.2 mph - N/A   Scattered Clouds
11:54 AM 30.0 °F 22.4 °F 15.1 °F 54% 30.23 in 10.0 mi WNW 8.1 mph - N/A   Mostly Cloudy
12:54 PM 28.0 °F 20.0 °F 17.1 °F 63% 30.25 in 9.0 mi North 8.1 mph - 0.00 in Snow Light Snow
1:54 PM 30.0 °F 20.5 °F 17.1 °F 59% 30.25 in 9.0 mi North 11.5 mph - 0.00 in Snow Light Snow
2:54 PM 30.0 °F 23.2 °F 15.1 °F 54% 30.25 in 10.0 mi NNW 6.9 mph - 0.00 in   Scattered Clouds
3:54 PM 30.0 °F 20.0 °F 16.0 °F 56% 30.25 in 10.0 mi NNW 12.7 mph - N/A   Scattered Clouds
4:54 PM 30.0 °F 21.7 °F 14.0 °F 51% 30.26 in 10.0 mi NNW 9.2 mph - N/A   Scattered Clouds
5:54 PM 28.9 °F 21.1 °F 10.9 °F 47% 30.28 in 10.0 mi NNW 8.1 mph - N/A   Scattered Clouds
6:54 PM 28.0 °F 20.8 °F 10.0 °F 47% 30.29 in 10.0 mi NNE 6.9 mph - N/A   Scattered Clouds
7:54 PM 26.1 °F 19.4 °F 9.0 °F 49% 30.31 in 10.0 mi NNE 5.8 mph - N/A   Partly Cloudy
8:54 PM 24.1 °F 17.0 °F 9.0 °F 53% 30.32 in 10.0 mi NE 5.8 mph - N/A   Partly Cloudy
9:54 PM 23.0 °F 17.0 °F 10.0 °F 58% 30.34 in 10.0 mi ENE 4.6 mph - N/A   Clear
10:54 PM 23.0 °F 17.0 °F 10.0 °F 58% 30.34 in 10.0 mi ESE 4.6 mph - N/A   Clear
11:54 PM 21.9 °F 14.5 °F 9.0 °F 58% 30.34 in 10.0 mi East 5.8 mph - N/A   Clear